Time,TemperatureF,DewpointF,PressureIn,WindDirection,WindDirectionDegrees,WindSpeedMPH,WindSpeedGustMPH,Humidity,HourlyPrecipIn,Conditions,Clouds,dailyrainin,SolarRadiationWatts/m^2,SoftwareType,DateUTC
2013-06-29 00:02:00,76.2,72.4,29.91,SSW,211,5.0,7.0,88,0.00,,,0.23,0,Wunderground v.1.15,2013-06-29 04:02:00,
2013-06-29 00:04:00,76.2,72.4,29.91,SSW,205,5.0,7.0,88,0.00,,,0.23,0,Wunderground v.1.15,2013-06-29 04:04:00,
2013-06-29 00:10:00,76.2,72.4,29.91,SSE,167,6.0,6.0,88,0.00,,,0.00,0,Wunderground v.1.15,2013-06-29 04:10:00,
2013-06-29 00:16:00,76.2,72.4,29.90,SW,214,6.0,6.0,88,0.00,,,0.00,0,Wunderground v.1.15,2013-06-29 04:16:00,
2013-06-29 00:22:00,76.1,72.3,29.90,SSW,206,4.0,5.0,88,0.00,,,0.00,0,Wunderground v.1.15,2013-06-29 04:22:00,
2013-06-29 00:28:00,76.1,72.3,29.90,SSW,202,4.0,5.0,88,0.00,,,0.00,0,Wunderground v.1.15,2013-06-29 04:28:00,
2013-06-29 00:34:00,76.0,72.2,29.90,SSW,192,4.0,6.0,88,0.00,,,0.00,0,Wunderground v.1.15,2013-06-29 04:34:00,
2013-06-29 00:40:00,76.0,72.2,29.89,SSW,193,5.0,5.0,88,0.00,,,0.00,0,Wunderground v.1.15,2013-06-29 04:40:00,
2013-06-29 00:46:00,76.0,72.2,29.89,SSW,193,4.0,5.0,88,0.00,,,0.00,0,Wunderground v.1.15,2013-06-29 04:46:00,
2013-06-29 00:52:00,75.9,72.4,29.90,SW,227,3.0,7.0,89,0.00,,,0.00,0,Wunderground v.1.15,2013-06-29 04:52:00,
2013-06-29 00:58:00,75.8,72.3,29.89,SSW,212,4.0,7.0,89,0.00,,,0.00,0,Wunderground v.1.15,2013-06-29 04:58:00,
2013-06-29 01:00:00,75.8,72.3,29.89,SSW,200,4.0,4.0,89,0.00,,,0.00,0,Wunderground v.1.15,2013-06-29 05:00:00,
2013-06-29 01:06:00,75.7,72.2,29.89,South,185,2.0,5.0,89,0.00,,,0.00,0,Wunderground v.1.15,2013-06-29 05:06:00,
2013-06-29 01:12:00,75.6,72.1,29.89,South,190,2.0,2.0,89,0.00,,,0.00,0,Wunderground v.1.15,2013-06-29 05:12:00,
2013-06-29 01:18:00,75.6,72.5,29.89,SW,236,2.0,3.0,90,0.00,,,0.00,0,Wunderground v.1.15,2013-06-29 05:18:00,
2013-06-29 01:24:00,75.6,72.5,29.89,SSW,208,3.0,6.0,90,0.00,,,0.00,0,Wunderground v.1.15,2013-06-29 05:24:00,
2013-06-29 01:30:00,75.6,72.5,29.89,SSW,195,3.0,5.0,90,0.00,,,0.00,0,Wunderground v.1.15,2013-06-29 05:30:00,
2013-06-29 01:36:00,75.6,72.5,29.88,SSW,196,3.0,5.0,90,0.00,,,0.00,0,Wunderground v.1.15,2013-06-29 05:36:00,
2013-06-29 01:42:00,75.6,72.8,29.89,SSW,210,4.0,6.0,91,0.00,,,0.00,0,Wunderground v.1.15,2013-06-29 05:42:00,
2013-06-29 01:48:00,75.5,72.7,29.88,South,180,3.0,10.0,91,0.00,,,0.00,0,Wunderground v.1.15,2013-06-29 05:48:00,
2013-06-29 01:54:00,75.5,72.7,29.88,SSW,205,3.0,3.0,91,0.00,,,0.00,0,Wunderground v.1.15,2013-06-29 05:54:00,
2013-06-29 02:00:00,75.5,72.7,29.88,SSW,209,3.0,3.0,91,0.00,,,0.00,0,Wunderground v.1.15,2013-06-29 06:00:00,
2013-06-29 02:06:00,75.4,72.9,29.88,South,185,3.0,3.0,92,0.00,,,0.00,0,Wunderground v.1.15,2013-06-29 06:06:00,
2013-06-29 02:12:00,75.5,73.0,29.87,SSW,201,3.0,6.0,92,0.00,,,0.00,0,Wunderground v.1.15,2013-06-29 06:12:00,
2013-06-29 02:18:00,75.5,73.0,29.87,SSW,199,4.0,7.0,92,0.00,,,0.00,0,Wunderground v.1.15,2013-06-29 06:18:00,
2013-06-29 02:24:00,75.5,73.3,29.87,SSW,201,5.0,9.0,93,0.00,,,0.00,0,Wunderground v.1.15,2013-06-29 06:24:00,
2013-06-29 02:30:00,75.5,73.3,29.88,SSW,209,5.0,8.0,93,0.00,,,0.00,0,Wunderground v.1.15,2013-06-29 06:30:00,
2013-06-29 02:36:00,75.5,73.3,29.88,SW,215,4.0,8.0,93,0.00,,,0.00,0,Wunderground v.1.15,2013-06-29 06:36:00,
2013-06-29 02:42:00,75.4,73.2,29.88,SW,218,3.0,4.0,93,0.00,,,0.00,0,Wunderground v.1.15,2013-06-29 06:42:00,
2013-06-29 02:48:00,75.4,73.2,29.88,South,190,3.0,9.0,93,0.00,,,0.00,0,Wunderground v.1.15,2013-06-29 06:48:00,
2013-06-29 02:54:00,75.4,73.2,29.88,South,184,4.0,4.0,93,0.00,,,0.00,0,Wunderground v.1.15,2013-06-29 06:54:00,
2013-06-29 03:00:00,75.4,73.6,29.88,South,191,4.0,4.0,94,0.00,,,0.00,0,Wunderground v.1.15,2013-06-29 07:00:00,
2013-06-29 03:06:00,75.4,73.6,29.88,South,189,3.0,4.0,94,0.00,,,0.00,0,Wunderground v.1.15,2013-06-29 07:06:00,
2013-06-29 03:12:00,75.3,73.5,29.88,SSW,196,3.0,3.0,94,0.00,,,0.00,0,Wunderground v.1.15,2013-06-29 07:12:00,
2013-06-29 03:18:00,75.3,73.5,29.88,SSW,196,3.0,8.0,94,0.00,,,0.00,0,Wunderground v.1.15,2013-06-29 07:18:00,
2013-06-29 03:24:00,75.4,73.6,29.88,South,177,5.0,10.0,94,0.00,,,0.00,0,Wunderground v.1.15,2013-06-29 07:24:00,
2013-06-29 03:30:00,75.4,73.6,29.88,SSW,211,5.0,5.0,94,0.00,,,0.00,0,Wunderground v.1.15,2013-06-29 07:30:00,
2013-06-29 03:36:00,75.4,73.6,29.88,SSW,200,4.0,5.0,94,0.00,,,0.00,0,Wunderground v.1.15,2013-06-29 07:36:00,
2013-06-29 03:42:00,75.4,73.6,29.88,SSW,196,4.0,7.0,94,0.00,,,0.00,0,Wunderground v.1.15,2013-06-29 07:42:00,
2013-06-29 03:48:00,75.4,73.6,29.87,SW,217,5.0,7.0,94,0.00,,,0.00,0,Wunderground v.1.15,2013-06-29 07:48:00,
2013-06-29 03:54:00,75.5,73.7,29.87,SSW,207,5.0,7.0,94,0.00,,,0.00,0,Wunderground v.1.15,2013-06-29 07:54:00,
2013-06-29 04:00:00,75.5,73.7,29.87,SSW,207,4.0,4.0,94,0.00,,,0.00,0,Wunderground v.1.15,2013-06-29 08:00:00,
2013-06-29 04:06:00,75.5,73.7,29.87,South,190,4.0,4.0,94,0.00,,,0.00,0,Wunderground v.1.15,2013-06-29 08:06:00,
2013-06-29 04:12:00,75.6,73.8,29.87,South,188,4.0,5.0,94,0.00,,,0.00,0,Wunderground v.1.15,2013-06-29 08:12:00,
2013-06-29 04:18:00,75.6,73.8,29.87,SSW,210,5.0,7.0,94,0.00,,,0.00,0,Wunderground v.1.15,2013-06-29 08:18:00,
2013-06-29 04:24:00,75.6,73.8,29.87,SSW,198,4.0,6.0,94,0.00,,,0.00,0,Wunderground v.1.15,2013-06-29 08:24:00,
2013-06-29 04:30:00,75.6,73.8,29.87,SSW,196,3.0,4.0,94,0.00,,,0.00,0,Wunderground v.1.15,2013-06-29 08:30:00,
2013-06-29 04:36:00,75.6,73.8,29.87,South,177,3.0,4.0,94,0.00,,,0.00,0,Wunderground v.1.15,2013-06-29 08:36:00,
2013-06-29 04:42:00,75.6,73.8,29.88,SSW,194,5.0,5.0,94,0.00,,,0.00,0,Wunderground v.1.15,2013-06-29 08:42:00,
2013-06-29 04:48:00,75.6,73.8,29.88,SSW,205,4.0,6.0,94,0.00,,,0.00,0,Wunderground v.1.15,2013-06-29 08:48:00,
2013-06-29 04:54:00,75.6,73.8,29.88,South,191,4.0,7.0,94,0.00,,,0.00,0,Wunderground v.1.15,2013-06-29 08:54:00,
2013-06-29 05:00:00,75.7,73.8,29.88,SSW,212,4.0,4.0,94,0.00,,,0.00,0,Wunderground v.1.15,2013-06-29 09:00:00,
2013-06-29 05:06:00,75.6,73.8,29.88,South,188,3.0,5.0,94,0.00,,,0.00,0,Wunderground v.1.15,2013-06-29 09:06:00,
2013-06-29 05:12:00,75.6,73.8,29.89,SSW,199,3.0,4.0,94,0.00,,,0.00,0,Wunderground v.1.15,2013-06-29 09:12:00,
2013-06-29 05:18:00,75.6,73.8,29.89,SSW,209,4.0,6.0,94,0.00,,,0.00,0,Wunderground v.1.15,2013-06-29 09:18:00,
2013-06-29 05:24:00,75.6,73.8,29.89,SSW,206,4.0,6.0,94,0.00,,,0.00,0,Wunderground v.1.15,2013-06-29 09:24:00,
2013-06-29 05:30:00,75.6,73.8,29.89,South,189,4.0,6.0,94,0.00,,,0.00,0,Wunderground v.1.15,2013-06-29 09:30:00,
2013-06-29 05:36:00,75.7,74.2,29.89,South,186,4.0,6.0,95,0.00,,,0.00,0,Wunderground v.1.15,2013-06-29 09:36:00,
2013-06-29 05:42:00,75.7,74.2,29.89,SSW,206,4.0,4.0,95,0.00,,,0.00,0,Wunderground v.1.15,2013-06-29 09:42:00,
2013-06-29 05:48:00,75.7,74.2,29.89,SW,214,3.0,4.0,95,0.00,,,0.00,0,Wunderground v.1.15,2013-06-29 09:48:00,
2013-06-29 05:54:00,75.7,74.2,29.89,SSW,205,3.0,5.0,95,0.00,,,0.00,0,Wunderground v.1.15,2013-06-29 09:54:00,
2013-06-29 06:00:00,75.7,74.2,29.90,SSW,204,4.0,4.0,95,0.00,,,0.00,0,Wunderground v.1.15,2013-06-29 10:00:00,
2013-06-29 06:06:00,75.8,74.3,29.90,SSE,165,4.0,7.0,95,0.00,,,0.00,0,Wunderground v.1.15,2013-06-29 10:06:00,
2013-06-29 06:12:00,75.8,74.3,29.90,South,177,4.0,6.0,95,0.00,,,0.00,0,Wunderground v.1.15,2013-06-29 10:12:00,
2013-06-29 06:18:00,75.8,74.3,29.90,South,182,4.0,6.0,95,0.00,,,0.00,0,Wunderground v.1.15,2013-06-29 10:18:00,
2013-06-29 06:24:00,75.8,74.3,29.90,SSW,206,4.0,9.0,95,0.00,,,0.00,0,Wunderground v.1.15,2013-06-29 10:24:00,
2013-06-29 06:30:00,75.8,74.3,29.90,SSW,202,3.0,3.0,95,0.00,,,0.00,0,Wunderground v.1.15,2013-06-29 10:30:00,
2013-06-29 06:36:00,75.8,74.3,29.90,South,177,3.0,3.0,95,0.00,,,0.00,9,Wunderground v.1.15,2013-06-29 10:36:00,
2013-06-29 06:42:00,75.8,74.3,29.90,SSW,201,4.0,4.0,95,0.00,,,0.00,14,Wunderground v.1.15,2013-06-29 10:42:00,
2013-06-29 06:48:00,75.8,74.3,29.90,SSW,200,3.0,4.0,95,0.00,,,0.00,18,Wunderground v.1.15,2013-06-29 10:48:00,
2013-06-29 06:54:00,75.8,74.3,29.90,SSW,202,2.0,3.0,95,0.00,,,0.00,19,Wunderground v.1.15,2013-06-29 10:54:00,
2013-06-29 07:00:00,75.8,74.3,29.91,SSW,202,1.0,3.0,95,0.00,,,0.00,23,Wunderground v.1.15,2013-06-29 11:00:00,
2013-06-29 07:06:00,75.8,74.3,29.91,South,185,2.0,6.0,95,0.00,,,0.00,19,Wunderground v.1.15,2013-06-29 11:06:00,
2013-06-29 07:12:00,75.9,74.4,29.91,SSW,211,3.0,3.0,95,0.00,,,0.00,25,Wunderground v.1.15,2013-06-29 11:12:00,
2013-06-29 07:18:00,75.9,74.4,29.91,SSW,196,3.0,3.0,95,0.00,,,0.00,49,Wunderground v.1.15,2013-06-29 11:18:00,
2013-06-29 07:24:00,76.1,74.6,29.91,SSW,199,3.0,6.0,95,0.00,,,0.00,86,Wunderground v.1.15,2013-06-29 11:24:00,
2013-06-29 07:30:00,76.4,74.9,29.91,SSW,204,3.0,5.0,95,0.00,,,0.00,111,Wunderground v.1.15,2013-06-29 11:30:00,
2013-06-29 07:36:00,76.7,75.2,29.90,SSW,209,4.0,6.0,95,0.00,,,0.00,135,Wunderground v.1.15,2013-06-29 11:36:00,
2013-06-29 07:42:00,77.1,75.6,29.90,SSW,209,4.0,6.0,95,0.00,,,0.00,155,Wunderground v.1.15,2013-06-29 11:42:00,
2013-06-29 07:48:00,77.5,75.6,29.90,SSW,197,4.0,6.0,94,0.00,,,0.00,178,Wunderground v.1.15,2013-06-29 11:48:00,
2013-06-29 07:54:00,77.9,76.0,29.89,SSW,202,4.0,6.0,94,0.00,,,0.00,195,Wunderground v.1.15,2013-06-29 11:54:00,
2013-06-29 08:00:00,78.2,76.0,29.89,SSW,203,4.0,4.0,93,0.00,,,0.00,218,Wunderground v.1.15,2013-06-29 12:00:00,
2013-06-29 08:06:00,78.7,76.2,29.89,SW,234,4.0,11.0,92,0.00,,,0.00,237,Wunderground v.1.15,2013-06-29 12:06:00,
2013-06-29 08:12:00,79.1,76.2,29.90,SSW,206,4.0,4.0,91,0.00,,,0.00,258,Wunderground v.1.15,2013-06-29 12:12:00,
2013-06-29 08:18:00,79.6,76.1,29.90,SW,221,5.0,12.0,89,0.00,,,0.00,278,Wunderground v.1.15,2013-06-29 12:18:00,
2013-06-29 08:24:00,80.0,76.5,29.90,SSW,199,5.0,6.0,89,0.00,,,0.00,299,Wunderground v.1.15,2013-06-29 12:24:00,
2013-06-29 08:30:00,80.4,76.2,29.90,SSW,207,5.0,5.0,87,0.00,,,0.00,318,Wunderground v.1.15,2013-06-29 12:30:00,
2013-06-29 08:36:00,80.8,76.6,29.90,SSW,209,6.0,7.0,87,0.00,,,0.00,339,Wunderground v.1.15,2013-06-29 12:36:00,
2013-06-29 08:42:00,81.2,76.6,29.90,SSW,202,5.0,9.0,86,0.00,,,0.00,359,Wunderground v.1.15,2013-06-29 12:42:00,
2013-06-29 08:48:00,81.6,77.0,29.90,SSW,209,4.0,9.0,86,0.00,,,0.00,380,Wunderground v.1.15,2013-06-29 12:48:00,
2013-06-29 08:54:00,81.9,76.6,29.90,SW,216,5.0,11.0,84,0.00,,,0.00,403,Wunderground v.1.15,2013-06-29 12:54:00,
2013-06-29 09:00:00,82.3,77.0,29.90,SW,217,6.0,7.0,84,0.00,,,0.00,422,Wunderground v.1.15,2013-06-29 13:00:00,
2013-06-29 09:06:00,82.5,76.8,29.89,SW,219,7.0,10.0,83,0.00,,,0.00,443,Wunderground v.1.15,2013-06-29 13:06:00,
2013-06-29 09:12:00,83.0,76.9,29.89,SSW,212,6.0,12.0,82,0.00,,,0.00,468,Wunderground v.1.15,2013-06-29 13:12:00,
2013-06-29 09:18:00,83.3,77.2,29.89,SW,219,5.0,12.0,82,0.00,,,0.00,478,Wunderground v.1.15,2013-06-29 13:18:00,
2013-06-29 09:24:00,83.6,76.4,29.89,WSW,253,4.0,9.0,79,0.00,,,0.00,492,Wunderground v.1.15,2013-06-29 13:24:00,
2013-06-29 09:30:00,83.7,76.5,29.89,WSW,239,6.0,6.0,79,0.00,,,0.00,508,Wunderground v.1.15,2013-06-29 13:30:00,
2013-06-29 09:36:00,83.8,76.6,29.88,SW,225,6.0,7.0,79,0.00,,,0.00,520,Wunderground v.1.15,2013-06-29 13:36:00,
2013-06-29 09:42:00,84.0,76.4,29.88,SW,231,6.0,11.0,78,0.00,,,0.00,406,Wunderground v.1.15,2013-06-29 13:42:00,
2013-06-29 09:48:00,84.5,76.5,29.88,SW,222,6.0,11.0,77,0.00,,,0.00,538,Wunderground v.1.15,2013-06-29 13:48:00,
2013-06-29 09:54:00,84.8,76.4,29.88,SSW,207,6.0,12.0,76,0.00,,,0.00,559,Wunderground v.1.15,2013-06-29 13:54:00,
2013-06-29 10:00:00,85.1,76.7,29.87,WSW,257,6.0,7.0,76,0.00,,,0.00,534,Wunderground v.1.15,2013-06-29 14:00:00,
2013-06-29 10:06:00,85.4,76.2,29.87,SSW,205,6.0,7.0,74,0.00,,,0.00,564,Wunderground v.1.15,2013-06-29 14:06:00,
2013-06-29 10:12:00,85.6,76.4,29.87,SW,221,6.0,7.0,74,0.00,,,0.00,622,Wunderground v.1.15,2013-06-29 14:12:00,
2013-06-29 10:18:00,85.7,76.5,29.87,South,190,6.0,7.0,74,0.00,,,0.00,664,Wunderground v.1.15,2013-06-29 14:18:00,
2013-06-29 10:24:00,86.0,75.5,29.87,SSW,204,7.0,9.0,71,0.00,,,0.00,628,Wunderground v.1.15,2013-06-29 14:24:00,
2013-06-29 10:30:00,86.1,75.2,29.88,SSW,207,7.0,10.0,70,0.00,,,0.00,668,Wunderground v.1.15,2013-06-29 14:30:00,
2013-06-29 10:36:00,86.2,75.3,29.88,SW,236,8.0,11.0,70,0.00,,,0.00,645,Wunderground v.1.15,2013-06-29 14:36:00,
2013-06-29 10:42:00,86.3,75.4,29.88,SSW,198,8.0,8.0,70,0.00,,,0.00,722,Wunderground v.1.15,2013-06-29 14:42:00,
2013-06-29 10:48:00,86.8,75.8,29.88,SW,222,6.0,9.0,70,0.00,,,0.00,686,Wunderground v.1.15,2013-06-29 14:48:00,
2013-06-29 10:54:00,87.2,75.3,29.88,WSW,242,6.0,9.0,68,0.00,,,0.00,752,Wunderground v.1.15,2013-06-29 14:54:00,
2013-06-29 11:00:00,87.5,75.2,29.88,SSW,203,7.0,7.0,67,0.00,,,0.00,724,Wunderground v.1.15,2013-06-29 15:00:00,
2013-06-29 11:06:00,87.6,75.3,29.88,SW,234,7.0,9.0,67,0.00,,,0.00,775,Wunderground v.1.15,2013-06-29 15:06:00,
2013-06-29 11:12:00,88.0,76.1,29.87,SSW,208,6.0,9.0,68,0.00,,,0.00,940,Wunderground v.1.15,2013-06-29 15:12:00,
2013-06-29 11:18:00,88.4,76.0,29.88,SW,223,5.0,9.0,67,0.00,,,0.00,872,Wunderground v.1.15,2013-06-29 15:18:00,
2013-06-29 11:24:00,88.5,75.7,29.87,WSW,239,6.0,11.0,66,0.00,,,0.00,860,Wunderground v.1.15,2013-06-29 15:24:00,
2013-06-29 11:30:00,88.5,76.1,29.87,SW,225,6.0,6.0,67,0.00,,,0.00,858,Wunderground v.1.15,2013-06-29 15:30:00,
2013-06-29 11:36:00,89.1,76.3,29.87,SSW,209,5.0,9.0,66,0.00,,,0.00,891,Wunderground v.1.15,2013-06-29 15:36:00,
2013-06-29 11:42:00,89.4,76.5,29.87,WSW,252,5.0,5.0,66,0.00,,,0.00,981,Wunderground v.1.15,2013-06-29 15:42:00,
2013-06-29 11:48:00,89.6,76.3,29.88,WSW,256,5.0,13.0,65,0.00,,,0.00,958,Wunderground v.1.15,2013-06-29 15:48:00,
2013-06-29 11:54:00,89.2,75.9,29.88,SW,229,6.0,12.0,65,0.00,,,0.00,935,Wunderground v.1.15,2013-06-29 15:54:00,
2013-06-29 12:00:00,89.3,76.0,29.88,WSW,246,6.0,14.0,65,0.00,,,0.00,942,Wunderground v.1.15,2013-06-29 16:00:00,
2013-06-29 12:06:00,89.7,75.4,29.87,SSW,196,6.0,14.0,63,0.00,,,0.00,909,Wunderground v.1.15,2013-06-29 16:06:00,
2013-06-29 12:12:00,89.6,75.8,29.88,SSW,198,7.0,7.0,64,0.00,,,0.00,909,Wunderground v.1.15,2013-06-29 16:12:00,
2013-06-29 12:18:00,90.0,76.2,29.88,SW,217,6.0,12.0,64,0.00,,,0.00,1072,Wunderground v.1.15,2013-06-29 16:18:00,
2013-06-29 12:24:00,90.0,75.7,29.88,SSW,194,7.0,8.0,63,0.00,,,0.00,969,Wunderground v.1.15,2013-06-29 16:24:00,
2013-06-29 12:30:00,90.3,75.0,29.88,West,261,6.0,8.0,61,0.00,,,0.00,1079,Wunderground v.1.15,2013-06-29 16:30:00,
2013-06-29 12:36:00,90.1,75.8,29.88,WSW,252,7.0,9.0,63,0.00,,,0.00,1009,Wunderground v.1.15,2013-06-29 16:36:00,
2013-06-29 12:42:00,90.2,75.9,29.87,SSW,200,6.0,9.0,63,0.00,,,0.00,1030,Wunderground v.1.15,2013-06-29 16:42:00,
2013-06-29 12:48:00,90.1,75.3,29.88,WSW,253,7.0,10.0,62,0.00,,,0.00,970,Wunderground v.1.15,2013-06-29 16:48:00,
2013-06-29 12:54:00,90.6,75.3,29.88,SW,215,6.0,7.0,61,0.00,,,0.00,1007,Wunderground v.1.15,2013-06-29 16:54:00,
2013-06-29 13:00:00,91.3,75.5,29.87,South,172,5.0,6.0,60,0.00,,,0.00,1007,Wunderground v.1.15,2013-06-29 17:00:00,
2013-06-29 13:06:00,91.7,75.8,29.87,South,186,6.0,11.0,60,0.00,,,0.00,1065,Wunderground v.1.15,2013-06-29 17:06:00,
2013-06-29 13:12:00,92.1,75.7,29.87,WSW,257,6.0,6.0,59,0.00,,,0.00,359,Wunderground v.1.15,2013-06-29 17:12:00,
2013-06-29 13:18:00,91.8,74.9,29.87,SW,234,6.0,12.0,58,0.00,,,0.00,250,Wunderground v.1.15,2013-06-29 17:18:00,
2013-06-29 13:24:00,91.2,74.9,29.87,SW,215,6.0,9.0,59,0.00,,,0.00,422,Wunderground v.1.15,2013-06-29 17:24:00,
2013-06-29 13:30:00,91.3,75.5,29.86,SSE,153,4.0,4.0,60,0.00,,,0.00,548,Wunderground v.1.15,2013-06-29 17:30:00,
2013-06-29 13:36:00,91.0,75.2,29.85,WSW,250,6.0,9.0,60,0.00,,,0.00,381,Wunderground v.1.15,2013-06-29 17:36:00,
2013-06-29 13:42:00,90.9,75.6,29.85,SW,221,7.0,10.0,61,0.00,,,0.00,385,Wunderground v.1.15,2013-06-29 17:42:00,
2013-06-29 13:48:00,90.8,75.0,29.85,West,260,5.0,10.0,60,0.00,,,0.00,318,Wunderground v.1.15,2013-06-29 17:48:00,
2013-06-29 13:54:00,91.0,75.7,29.85,SSW,213,4.0,7.0,61,0.00,,,0.00,1120,Wunderground v.1.15,2013-06-29 17:54:00,
2013-06-29 14:00:00,91.0,75.2,29.85,WNW,293,6.0,6.0,60,0.00,,,0.00,214,Wunderground v.1.15,2013-06-29 18:00:00,
2013-06-29 14:06:00,89.0,72.3,29.86,NW,325,8.0,12.0,58,0.00,,,0.00,241,Wunderground v.1.15,2013-06-29 18:06:00,
2013-06-29 14:12:00,87.9,72.8,29.86,NW,317,6.0,6.0,61,0.00,,,0.00,387,Wunderground v.1.15,2013-06-29 18:12:00,
2013-06-29 14:18:00,87.8,73.6,29.85,WSW,255,3.0,9.0,63,0.00,,,0.00,336,Wunderground v.1.15,2013-06-29 18:18:00,
2013-06-29 14:24:00,88.5,74.3,29.85,WNW,298,4.0,4.0,63,0.00,,,0.00,1042,Wunderground v.1.15,2013-06-29 18:24:00,
2013-06-29 14:30:00,89.3,74.1,29.85,West,278,5.0,5.0,61,0.00,,,0.00,380,Wunderground v.1.15,2013-06-29 18:30:00,
2013-06-29 14:36:00,89.6,74.4,29.85,WNW,286,4.0,5.0,61,0.00,,,0.00,397,Wunderground v.1.15,2013-06-29 18:36:00,
2013-06-29 14:42:00,89.6,74.4,29.85,NE,40,3.0,4.0,61,0.00,,,0.00,840,Wunderground v.1.15,2013-06-29 18:42:00,
2013-06-29 14:48:00,88.2,74.5,29.85,ENE,60,2.0,5.0,64,0.00,,,0.00,712,Wunderground v.1.15,2013-06-29 18:48:00,
2013-06-29 14:54:00,87.5,75.2,29.85,ENE,73,3.0,4.0,67,0.00,,,0.00,134,Wunderground v.1.15,2013-06-29 18:54:00,
2013-06-29 15:00:00,86.5,71.9,29.86,WSW,239,4.0,10.0,62,0.00,,,0.00,123,Wunderground v.1.15,2013-06-29 19:00:00,
2013-06-29 15:06:00,85.7,72.1,29.86,WNW,294,4.0,10.0,64,0.00,,,0.00,51,Wunderground v.1.15,2013-06-29 19:06:00,
2013-06-29 15:12:00,84.6,74.2,29.86,WNW,302,3.0,6.0,71,2.59,,,0.08,60,Wunderground v.1.15,2013-06-29 19:12:00,
2013-06-29 15:18:00,81.7,72.6,29.85,NW,313,3.0,9.0,74,0.20,,,0.11,264,Wunderground v.1.15,2013-06-29 19:18:00,
2013-06-29 15:24:00,80.7,73.6,29.87,West,271,1.0,3.0,79,0.07,,,0.11,199,Wunderground v.1.15,2013-06-29 19:24:00,
2013-06-29 15:30:00,79.8,73.8,29.86,West,271,0.0,0.0,82,0.04,,,0.11,163,Wunderground v.1.15,2013-06-29 19:30:00,
2013-06-29 15:36:00,78.9,71.8,29.86,NNE,17,0.0,0.0,79,0.04,,,0.12,153,Wunderground v.1.15,2013-06-29 19:36:00,
2013-06-29 15:42:00,78.6,71.9,29.85,SSE,153,0.0,0.0,80,0.04,,,0.12,132,Wunderground v.1.15,2013-06-29 19:42:00,
2013-06-29 15:48:00,78.5,73.3,29.84,SSE,154,0.0,0.0,84,0.00,,,0.12,134,Wunderground v.1.15,2013-06-29 19:48:00,
2013-06-29 15:54:00,78.7,73.5,29.85,SSE,153,0.0,0.0,84,0.00,,,0.12,151,Wunderground v.1.15,2013-06-29 19:54:00,
2013-06-29 16:00:00,78.7,73.8,29.85,SSE,153,0.0,0.0,85,0.00,,,0.12,163,Wunderground v.1.15,2013-06-29 20:00:00,
2013-06-29 16:06:00,78.9,74.0,29.84,SSE,153,0.0,0.0,85,0.00,,,0.12,200,Wunderground v.1.15,2013-06-29 20:06:00,
2013-06-29 16:12:00,79.1,74.2,29.85,ENE,61,0.0,0.0,85,0.00,,,0.12,229,Wunderground v.1.15,2013-06-29 20:12:00,
2013-06-29 16:18:00,79.4,74.8,29.86,ENE,61,0.0,0.0,86,0.00,,,0.12,246,Wunderground v.1.15,2013-06-29 20:18:00,
2013-06-29 16:24:00,79.7,75.5,29.86,East,79,1.0,3.0,87,0.00,,,0.12,262,Wunderground v.1.15,2013-06-29 20:24:00,
2013-06-29 16:30:00,79.8,75.2,29.86,ENE,69,2.0,2.0,86,0.00,,,0.12,287,Wunderground v.1.15,2013-06-29 20:30:00,
2013-06-29 16:36:00,79.9,74.6,29.86,ENE,69,1.0,2.0,84,0.00,,,0.12,301,Wunderground v.1.15,2013-06-29 20:36:00,
2013-06-29 16:42:00,80.3,75.7,29.86,East,87,1.0,1.0,86,0.00,,,0.12,227,Wunderground v.1.15,2013-06-29 20:42:00,
2013-06-29 16:48:00,80.4,74.8,29.85,East,87,1.0,3.0,83,0.00,,,0.12,264,Wunderground v.1.15,2013-06-29 20:48:00,
2013-06-29 16:54:00,80.7,75.8,29.85,ESE,107,2.0,6.0,85,0.00,,,0.12,262,Wunderground v.1.15,2013-06-29 20:54:00,
2013-06-29 17:00:00,80.3,75.0,29.85,SE,141,4.0,9.0,84,0.00,,,0.12,223,Wunderground v.1.15,2013-06-29 21:00:00,
2013-06-29 17:06:00,80.4,75.1,29.85,SE,129,5.0,9.0,84,0.00,,,0.12,352,Wunderground v.1.15,2013-06-29 21:06:00,
2013-06-29 17:12:00,80.7,75.1,29.84,ESE,118,4.0,5.0,83,0.00,,,0.12,394,Wunderground v.1.15,2013-06-29 21:12:00,
2013-06-29 17:18:00,81.2,74.8,29.84,ESE,120,4.0,5.0,81,0.00,,,0.12,471,Wunderground v.1.15,2013-06-29 21:18:00,
2013-06-29 17:24:00,81.7,74.9,29.84,SE,141,3.0,3.0,80,0.00,,,0.12,471,Wunderground v.1.15,2013-06-29 21:24:00,
2013-06-29 17:30:00,82.1,74.9,29.84,SE,130,2.0,2.0,79,0.00,,,0.12,350,Wunderground v.1.15,2013-06-29 21:30:00,
2013-06-29 17:36:00,82.3,74.7,29.84,SE,128,2.0,4.0,78,0.00,,,0.12,313,Wunderground v.1.15,2013-06-29 21:36:00,
2013-06-29 17:42:00,82.4,74.8,29.84,SE,128,1.0,1.0,78,0.00,,,0.12,315,Wunderground v.1.15,2013-06-29 21:42:00,
2013-06-29 17:48:00,82.5,74.6,29.84,ESE,111,2.0,5.0,77,0.00,,,0.12,318,Wunderground v.1.15,2013-06-29 21:48:00,
2013-06-29 17:54:00,82.6,75.4,29.84,SE,132,3.0,3.0,79,0.00,,,0.12,274,Wunderground v.1.15,2013-06-29 21:54:00,
2013-06-29 18:00:00,82.6,76.5,29.84,ESE,123,2.0,6.0,82,0.00,,,0.12,211,Wunderground v.1.15,2013-06-29 22:00:00,
2013-06-29 18:06:00,82.2,76.2,29.84,SSE,153,3.0,8.0,82,0.00,,,0.12,176,Wunderground v.1.15,2013-06-29 22:06:00,
2013-06-29 18:12:00,82.0,75.6,29.85,SSE,154,3.0,5.0,81,0.00,,,0.12,153,Wunderground v.1.15,2013-06-29 22:12:00,
2013-06-29 18:18:00,82.0,75.6,29.85,SSE,154,3.0,5.0,81,0.00,,,0.12,130,Wunderground v.1.15,2013-06-29 22:18:00,
2013-06-29 18:24:00,82.0,75.2,29.85,SSE,154,1.0,6.0,80,0.00,,,0.12,134,Wunderground v.1.15,2013-06-29 22:24:00,
2013-06-29 18:30:00,82.0,75.2,29.86,SSE,154,1.0,1.0,80,0.00,,,0.12,114,Wunderground v.1.15,2013-06-29 22:30:00,
2013-06-29 18:36:00,82.0,74.8,29.85,SSE,154,0.0,1.0,79,0.00,,,0.12,83,Wunderground v.1.15,2013-06-29 22:36:00,
2013-06-29 18:42:00,82.1,75.3,29.86,SSE,154,0.0,0.0,80,0.00,,,0.12,69,Wunderground v.1.15,2013-06-29 22:42:00,
2013-06-29 18:48:00,82.1,74.9,29.86,South,170,2.0,6.0,79,0.00,,,0.12,47,Wunderground v.1.15,2013-06-29 22:48:00,
2013-06-29 18:54:00,82.1,74.6,29.86,WSW,237,5.0,9.0,78,0.00,,,0.12,18,Wunderground v.1.15,2013-06-29 22:54:00,
2013-06-29 19:00:00,81.7,75.3,29.86,SSW,208,8.0,11.0,81,0.00,,,0.13,23,Wunderground v.1.15,2013-06-29 23:00:00,
2013-06-29 19:06:00,80.0,73.6,29.86,SW,223,8.0,11.0,81,0.00,,,0.13,19,Wunderground v.1.15,2013-06-29 23:06:00,
2013-06-29 19:12:00,78.7,72.7,29.85,SSW,209,5.0,7.0,82,0.06,,,0.14,18,Wunderground v.1.15,2013-06-29 23:12:00,
2013-06-29 19:18:00,77.6,72.4,29.86,South,190,4.0,7.0,84,0.06,,,0.14,18,Wunderground v.1.15,2013-06-29 23:18:00,
2013-06-29 19:24:00,76.7,72.2,29.86,SW,218,4.0,8.0,86,0.04,,,0.14,18,Wunderground v.1.15,2013-06-29 23:24:00,
2013-06-29 19:30:00,76.3,72.1,29.86,SSW,207,5.0,5.0,87,0.00,,,0.14,16,Wunderground v.1.15,2013-06-29 23:30:00,
2013-06-29 19:36:00,75.9,72.1,29.86,SSW,209,5.0,9.0,88,0.00,,,0.14,14,Wunderground v.1.15,2013-06-29 23:36:00,
2013-06-29 19:42:00,75.7,71.9,29.86,SSW,194,4.0,7.0,88,0.00,,,0.14,12,Wunderground v.1.15,2013-06-29 23:42:00,
2013-06-29 19:48:00,75.5,71.7,29.86,South,182,4.0,7.0,88,0.00,,,0.14,9,Wunderground v.1.15,2013-06-29 23:48:00,
2013-06-29 19:54:00,75.5,72.0,29.87,South,190,3.0,10.0,89,0.00,,,0.14,5,Wunderground v.1.15,2013-06-29 23:54:00,
2013-06-29 20:00:00,75.4,71.9,29.88,South,185,6.0,6.0,89,0.00,,,0.14,0,Wunderground v.1.15,2013-06-30 00:00:00,
2013-06-29 20:06:00,75.2,71.7,29.88,SW,222,7.0,10.0,89,0.00,,,0.14,0,Wunderground v.1.15,2013-06-30 00:06:00,
2013-06-29 20:12:00,74.9,71.8,29.88,South,191,7.0,12.0,90,0.00,,,0.15,0,Wunderground v.1.15,2013-06-30 00:12:00,
2013-06-29 20:18:00,74.5,71.0,29.88,SSW,200,6.0,12.0,89,0.08,,,0.16,0,Wunderground v.1.15,2013-06-30 00:18:00,
2013-06-29 20:24:00,74.0,70.2,29.88,South,178,6.0,9.0,88,0.06,,,0.16,0,Wunderground v.1.15,2013-06-30 00:24:00,
2013-06-29 20:30:00,73.7,70.3,29.89,SSE,165,5.0,5.0,89,0.04,,,0.17,0,Wunderground v.1.15,2013-06-30 00:30:00,
2013-06-29 20:36:00,73.7,70.6,29.88,South,180,4.0,6.0,90,0.04,,,0.17,0,Wunderground v.1.15,2013-06-30 00:36:00,
2013-06-29 20:42:00,73.5,70.7,29.88,SSE,158,5.0,5.0,91,0.04,,,0.17,0,Wunderground v.1.15,2013-06-30 00:42:00,
2013-06-29 20:48:00,73.5,71.0,29.87,South,174,5.0,5.0,92,0.00,,,0.17,0,Wunderground v.1.15,2013-06-30 00:48:00,
2013-06-29 20:54:00,73.5,71.4,29.87,South,172,4.0,5.0,93,0.00,,,0.17,0,Wunderground v.1.15,2013-06-30 00:54:00,
2013-06-29 21:00:00,73.6,71.4,29.87,South,175,2.0,3.0,93,0.00,,,0.17,0,Wunderground v.1.15,2013-06-30 01:00:00,
2013-06-29 21:06:00,73.7,71.9,29.87,South,186,2.0,4.0,94,0.00,,,0.17,0,Wunderground v.1.15,2013-06-30 01:06:00,
2013-06-29 21:12:00,73.7,71.9,29.87,SSW,193,3.0,5.0,94,0.00,,,0.17,0,Wunderground v.1.15,2013-06-30 01:12:00,
2013-06-29 21:18:00,73.7,71.9,29.87,SSW,203,3.0,7.0,94,0.00,,,0.17,0,Wunderground v.1.15,2013-06-30 01:18:00,
2013-06-29 21:24:00,73.6,71.8,29.87,SW,215,3.0,4.0,94,0.00,,,0.17,0,Wunderground v.1.15,2013-06-30 01:24:00,
2013-06-29 21:30:00,73.5,71.7,29.87,SW,217,3.0,3.0,94,0.00,,,0.17,0,Wunderground v.1.15,2013-06-30 01:30:00,
2013-06-29 21:36:00,73.5,71.7,29.87,SW,214,3.0,3.0,94,0.00,,,0.17,0,Wunderground v.1.15,2013-06-30 01:36:00,
2013-06-29 21:42:00,73.6,71.8,29.88,SSW,205,3.0,4.0,94,0.00,,,0.17,0,Wunderground v.1.15,2013-06-30 01:42:00,
2013-06-29 21:48:00,73.6,71.8,29.88,SW,215,3.0,5.0,94,0.00,,,0.17,0,Wunderground v.1.15,2013-06-30 01:48:00,
2013-06-29 21:54:00,73.7,71.9,29.88,South,191,4.0,6.0,94,0.00,,,0.17,0,Wunderground v.1.15,2013-06-30 01:54:00,
2013-06-29 22:00:00,73.8,72.0,29.88,SW,217,4.0,4.0,94,0.00,,,0.17,0,Wunderground v.1.15,2013-06-30 02:00:00,
2013-06-29 22:06:00,74.0,72.2,29.88,South,189,4.0,4.0,94,0.00,,,0.17,0,Wunderground v.1.15,2013-06-30 02:06:00,
2013-06-29 22:12:00,74.0,72.2,29.88,SW,223,4.0,6.0,94,0.00,,,0.17,0,Wunderground v.1.15,2013-06-30 02:12:00,
2013-06-29 22:18:00,74.1,72.3,29.89,SSW,203,5.0,6.0,94,0.00,,,0.17,0,Wunderground v.1.15,2013-06-30 02:18:00,
2013-06-29 22:24:00,74.2,72.4,29.89,SSW,205,5.0,10.0,94,0.00,,,0.17,0,Wunderground v.1.15,2013-06-30 02:24:00,
2013-06-29 22:30:00,74.2,72.4,29.89,SW,218,3.0,3.0,94,0.00,,,0.17,0,Wunderground v.1.15,2013-06-30 02:30:00,
2013-06-29 22:36:00,74.3,72.5,29.89,South,177,3.0,6.0,94,0.00,,,0.17,0,Wunderground v.1.15,2013-06-30 02:36:00,
2013-06-29 22:42:00,74.4,72.6,29.88,SSW,200,5.0,5.0,94,0.00,,,0.17,0,Wunderground v.1.15,2013-06-30 02:42:00,
2013-06-29 22:48:00,74.6,72.8,29.88,South,183,4.0,5.0,94,0.00,,,0.17,0,Wunderground v.1.15,2013-06-30 02:48:00,
2013-06-29 22:54:00,74.7,72.9,29.88,SSW,197,4.0,7.0,94,0.00,,,0.17,0,Wunderground v.1.15,2013-06-30 02:54:00,
2013-06-29 23:00:00,74.8,73.0,29.88,SSW,192,4.0,4.0,94,0.00,,,0.17,0,Wunderground v.1.15,2013-06-30 03:00:00,
2013-06-29 23:06:00,74.8,73.0,29.88,SSW,202,4.0,7.0,94,0.00,,,0.17,0,Wunderground v.1.15,2013-06-30 03:06:00,
2013-06-29 23:12:00,74.9,73.1,29.88,SSW,213,4.0,5.0,94,0.00,,,0.17,0,Wunderground v.1.15,2013-06-30 03:12:00,
2013-06-29 23:18:00,74.9,73.1,29.88,South,187,3.0,5.0,94,0.00,,,0.17,0,Wunderground v.1.15,2013-06-30 03:18:00,
2013-06-29 23:24:00,74.9,73.1,29.88,South,188,3.0,4.0,94,0.00,,,0.17,0,Wunderground v.1.15,2013-06-30 03:24:00,
2013-06-29 23:30:00,74.9,72.7,29.88,South,187,2.0,2.0,93,0.00,,,0.17,0,Wunderground v.1.15,2013-06-30 03:30:00,
2013-06-29 23:34:00,74.9,72.7,29.88,South,186,1.0,5.0,93,0.00,,,0.17,0,Wunderground v.1.15,2013-06-30 03:34:00,
2013-06-29 23:40:00,74.9,72.7,29.88,South,186,1.0,1.0,93,0.00,,,0.17,0,Wunderground v.1.15,2013-06-30 03:40:00,
2013-06-29 23:46:00,74.9,72.7,29.88,South,186,1.0,3.0,93,0.00,,,0.17,0,Wunderground v.1.15,2013-06-30 03:46:00,
2013-06-29 23:52:00,74.9,72.4,29.89,South,185,2.0,2.0,92,0.00,,,0.17,0,Wunderground v.1.15,2013-06-30 03:52:00,
2013-06-29 23:58:00,74.9,72.4,29.89,South,184,2.0,10.0,92,0.00,,,0.17,0,Wunderground v.1.15,2013-06-30 03:58:00,